TimeEDT,TemperatureF,Dew PointF,Humidity,Sea Level PressureIn,VisibilityMPH,Wind Direction,Wind SpeedMPH,Gust SpeedMPH,PrecipitationIn,Events,Conditions,WindDirDegrees,DateUTC
12:15 AM,60.8,53.6,77,30.14,10.0,SE,13.8,21.9,N/A,,Mostly Cloudy,130,2013-05-19 04:15:00
12:35 AM,60.8,53.6,77,30.14,10.0,ESE,12.7,17.3,N/A,,Overcast,120,2013-05-19 04:35:00
12:55 AM,60.8,53.6,77,30.14,10.0,ESE,12.7,-,N/A,,Scattered Clouds,120,2013-05-19 04:55:00
1:15 AM,59.0,53.6,82,30.14,10.0,SE,9.2,-,N/A,,Clear,130,2013-05-19 05:15:00
1:35 AM,59.0,53.6,82,30.13,10.0,ESE,10.4,-,N/A,,Mostly Cloudy,110,2013-05-19 05:35:00
1:55 AM,60.8,53.6,77,30.13,10.0,ESE,11.5,-,N/A,,Overcast,110,2013-05-19 05:55:00
2:15 AM,59.0,53.6,82,30.13,10.0,ESE,9.2,-,N/A,,Mostly Cloudy,120,2013-05-19 06:15:00
2:35 AM,57.2,53.6,88,30.13,10.0,ESE,9.2,-,N/A,,Scattered Clouds,120,2013-05-19 06:35:00
2:55 AM,59.0,55.4,88,30.13,10.0,ESE,9.2,-,N/A,,Overcast,120,2013-05-19 06:55:00
3:15 AM,60.8,55.4,82,30.12,10.0,ESE,10.4,-,N/A,,Overcast,120,2013-05-19 07:15:00
3:35 AM,60.8,55.4,82,30.12,10.0,ESE,8.1,16.1,N/A,,Overcast,110,2013-05-19 07:35:00
3:55 AM,59.0,55.4,88,30.12,10.0,ESE,9.2,-,N/A,,Overcast,120,2013-05-19 07:55:00
4:15 AM,59.0,55.4,88,30.12,10.0,ESE,9.2,-,N/A,,Overcast,110,2013-05-19 08:15:00
4:35 AM,59.0,55.4,88,30.12,10.0,ESE,10.4,-,N/A,,Overcast,110,2013-05-19 08:35:00
4:55 AM,59.0,53.6,82,30.13,10.0,ESE,11.5,-,N/A,,Overcast,120,2013-05-19 08:55:00
5:15 AM,59.0,53.6,82,30.13,10.0,ESE,10.4,-,N/A,,Overcast,120,2013-05-19 09:15:00
5:35 AM,59.0,53.6,82,30.13,10.0,SE,9.2,-,N/A,,Overcast,130,2013-05-19 09:35:00
5:55 AM,59.0,53.6,82,30.14,10.0,ESE,9.2,-,N/A,,Overcast,120,2013-05-19 09:55:00
6:15 AM,59.0,53.6,82,30.15,10.0,ESE,8.1,-,N/A,,Overcast,120,2013-05-19 10:15:00
6:35 AM,59.0,53.6,82,30.15,10.0,SE,8.1,-,N/A,,Overcast,130,2013-05-19 10:35:00
6:55 AM,59.0,53.6,82,30.15,10.0,SE,10.4,-,N/A,,Overcast,130,2013-05-19 10:55:00
7:15 AM,59.0,53.6,82,30.15,10.0,ESE,10.4,-,N/A,,Overcast,120,2013-05-19 11:15:00
7:35 AM,60.8,53.6,77,30.15,10.0,SE,10.4,-,N/A,,Overcast,130,2013-05-19 11:35:00
8:15 AM,60.8,55.4,82,30.16,10.0,SE,9.2,-,N/A,,Partly Cloudy,130,2013-05-19 12:15:00
8:35 AM,62.6,55.4,77,30.16,10.0,SE,12.7,-,N/A,,Scattered Clouds,130,2013-05-19 12:35:00
8:55 AM,64.4,55.4,73,30.16,10.0,SE,8.1,-,N/A,,Scattered Clouds,130,2013-05-19 12:55:00
9:15 AM,64.4,55.4,73,30.16,10.0,SE,5.8,-,N/A,,Partly Cloudy,140,2013-05-19 13:15:00
9:35 AM,64.4,55.4,73,30.16,10.0,ESE,8.1,-,N/A,,Clear,110,2013-05-19 13:35:00
9:55 AM,66.2,57.2,73,30.15,10.0,SE,9.2,-,N/A,,Clear,130,2013-05-19 13:55:00
10:15 AM,68.0,57.2,68,30.14,10.0,SE,10.4,-,N/A,,Clear,140,2013-05-19 14:15:00
10:55 AM,69.8,57.2,64,30.13,10.0,South,9.2,16.1,N/A,,Clear,170,2013-05-19 14:55:00
11:15 AM,71.6,59.0,64,30.13,10.0,SSE,8.1,-,N/A,,Clear,160,2013-05-19 15:15:00
11:35 AM,71.6,60.8,69,30.13,10.0,SSE,9.2,-,N/A,,Clear,150,2013-05-19 15:35:00
11:55 AM,73.4,60.8,65,30.12,10.0,South,8.1,-,N/A,,Partly Cloudy,170,2013-05-19 15:55:00
12:15 PM,75.2,60.8,61,30.11,10.0,SSE,11.5,16.1,N/A,,Partly Cloudy,150,2013-05-19 16:15:00
12:35 PM,75.2,60.8,61,30.11,10.0,SE,12.7,17.3,N/A,,Mostly Cloudy,140,2013-05-19 16:35:00
12:55 PM,75.2,59.0,57,30.09,10.0,South,15.0,18.4,N/A,,Scattered Clouds,170,2013-05-19 16:55:00
1:15 PM,73.4,59.0,61,30.09,10.0,South,11.5,-,N/A,,Mostly Cloudy,170,2013-05-19 17:15:00
1:35 PM,77.0,59.0,54,30.09,10.0,South,11.5,-,N/A,,Mostly Cloudy,170,2013-05-19 17:35:00
1:55 PM,77.0,60.8,57,30.08,10.0,SSE,9.2,-,N/A,,Mostly Cloudy,160,2013-05-19 17:55:00
2:15 PM,75.2,59.0,57,30.08,10.0,SE,8.1,-,N/A,,Mostly Cloudy,130,2013-05-19 18:15:00
2:35 PM,75.2,59.0,57,30.08,10.0,South,9.2,-,N/A,,Overcast,180,2013-05-19 18:35:00
3:15 PM,73.4,59.0,61,30.07,10.0,SE,9.2,-,N/A,,Overcast,140,2013-05-19 19:15:00
3:35 PM,73.4,59.0,61,30.06,10.0,SSE,10.4,16.1,N/A,,Overcast,160,2013-05-19 19:35:00
4:15 PM,75.2,59.0,57,30.05,10.0,SSE,9.2,17.3,N/A,,Overcast,150,2013-05-19 20:15:00
4:35 PM,75.2,59.0,57,30.05,10.0,SE,8.1,-,N/A,,Overcast,140,2013-05-19 20:35:00
4:55 PM,73.4,59.0,61,30.06,10.0,SSE,10.4,-,N/A,,Overcast,160,2013-05-19 20:55:00
5:15 PM,73.4,59.0,61,30.06,10.0,ESE,10.4,-,N/A,,Overcast,120,2013-05-19 21:15:00
5:35 PM,73.4,59.0,61,30.07,10.0,SE,5.8,-,N/A,,Overcast,140,2013-05-19 21:35:00
5:55 PM,73.4,57.2,57,30.07,10.0,SE,8.1,-,N/A,,Overcast,140,2013-05-19 21:55:00
6:15 PM,73.4,59.0,61,30.07,10.0,ESE,9.2,-,N/A,,Overcast,120,2013-05-19 22:15:00
6:35 PM,71.6,59.0,64,30.06,10.0,SE,11.5,-,N/A,,Overcast,130,2013-05-19 22:35:00
7:15 PM,73.4,59.0,61,30.04,10.0,SE,8.1,-,N/A,,Mostly Cloudy,130,2013-05-19 23:15:00
7:35 PM,71.6,57.2,60,30.05,10.0,SE,10.4,-,N/A,,Partly Cloudy,140,2013-05-19 23:35:00
7:55 PM,69.8,57.2,64,30.05,10.0,SE,12.7,18.4,N/A,,Clear,130,2013-05-19 23:55:00
8:15 PM,69.8,57.2,64,30.05,10.0,SE,13.8,18.4,N/A,,Clear,130,2013-05-20 00:15:00
8:35 PM,66.2,57.2,73,30.06,10.0,SE,10.4,-,N/A,,Clear,130,2013-05-20 00:35:00
8:55 PM,66.2,57.2,73,30.07,10.0,SE,10.4,16.1,N/A,,Clear,140,2013-05-20 00:55:00
9:15 PM,66.2,57.2,73,30.07,10.0,SE,12.7,-,N/A,,Clear,140,2013-05-20 01:15:00
9:35 PM,64.4,57.2,77,30.08,10.0,SE,12.7,18.4,N/A,,Clear,130,2013-05-20 01:35:00
9:55 PM,64.4,57.2,77,30.09,10.0,SE,10.4,-,N/A,,Clear,130,2013-05-20 01:55:00
10:15 PM,62.6,57.2,82,30.09,10.0,SE,10.4,-,N/A,,Clear,130,2013-05-20 02:15:00
10:35 PM,62.6,55.4,77,30.09,10.0,ESE,9.2,-,N/A,,Clear,120,2013-05-20 02:35:00
10:55 PM,62.6,55.4,77,30.09,10.0,ESE,9.2,-,N/A,,Clear,120,2013-05-20 02:55:00
11:15 PM,62.6,55.4,77,30.08,10.0,ESE,9.2,-,N/A,,Clear,120,2013-05-20 03:15:00
11:35 PM,62.6,55.4,77,30.07,10.0,SE,6.9,-,N/A,,Clear,130,2013-05-20 03:35:00
11:55 PM,60.8,55.4,82,30.07,10.0,ESE,8.1,-,N/A,,Clear,120,2013-05-20 03:55:00